STARLINK-4638

decayed
NORAD ID: 53785 Int'l Des: 2022-111 Owner: SPXS Country: US Constellation: starlink
LEOCIRCULAR
Gruppe

Über STARLINK-4638

Beschreibung wird geladen...

Höhenverlauf

Altitude vs Time

uPlot chart will show altitude changes over time

Zweizeiliger Elementsatz

1 53785U 22111N 22320.35102455 .30872265 12256-4 27186-2 0 9998
2 53785 53.1831 292.6621 0005146 125.2186 24.4073 16.38395634 10447
Epoch: 16. Nov. 2022 • Age: 24674 hours

Aktueller Status

Position data unavailable
Startdatum 11. Sept. 2022
Alter 2.9 years
Verglühungsdatum 16. Nov. 2022
Typ internet

Technische Details

Klassifizierung Payload
Masse 305.00 kg
Trockenmasse 290.00 kg
Gesamtmasse 305.00 kg
Länge 0.20 m
Durchmesser 2.80 m
Spannweite 9.00 m
Form Box + pan
Hersteller SPXS
Bus-Typ Starlink
Phasenstatus Unknown Transfer Status
Besitzer/Staat SPXS/US

Große Konstellationen

Loading constellations...